Regional Weather Roundup
Issued by NWS

Home | Current Version | Previous Version | Graphics & Text | Print | Product List | Glossary On
Versions: 1 2 3 4 5 6 7 8 9 10 11 12 13 14 15 16 17 18 19 20 21 22 23 24 25 26 27 28 29 30 31 32 33 34 35 36 37 38 39 40 41 42 43 44 45 46 47 48 49 50
585
ASUS43 KLOT 051303
RWRIL

ILLINOIS REGIONAL WEATHER ROUNDUP
NATIONAL WEATHER SERVICE CHICAGO/ROMEOVILLE IL
800 AM CDT THU MAY 05 2016

NOTE: "FAIR" INDICATES FEW OR NO CLOUDS BELOW 12,000 FEET WITH NO
SIGNIFICANT WEATHER AND/OR OBSTRUCTIONS TO VISIBILITY.

* THESE STATIONS ARE NOT UNDER NWS QUALITY CONTROL. THEY ALSO MAY NOT
  REPORT WEATHER SUCH AS PRECIPITATION OR FOG.

ILZ001-002-007-009-015-016-024-051400-
NORTHWEST ILLINOIS

CITY           SKY/WX    TMP DP  RH WIND       PRES   REMARKS
MOLINE         SUNNY     48  36  63 NE9       30.03R
STERLING*      SUNNY     45  36  70 N10       30.02S
$$

ILZ003-004-008-010-011-017-018-051400-
NORTH CENTRAL ILLINOIS

CITY           SKY/WX    TMP DP  RH WIND       PRES   REMARKS
ROCKFORD       MOSUNNY   44  35  70 N13       30.03R
FREEPORT*      SUNNY     42  35  75 N9        30.04R
ROCHELLE*      SUNNY     43  36  78 N14G20    30.01R
DE KALB*       SUNNY     42  35  76 N10       30.00R
$$

ILZ005-006-012>014-019>023-051400-
NORTHEAST ILLINOIS

CITY           SKY/WX    TMP DP  RH WIND       PRES   REMARKS
CHICAGO-OHARE  MOSUNNY   44  35  70 N12       29.97R
CHICAGO-MIDWAY MOSUNNY   46  35  65 N16       29.97R
AURORA         SUNNY     45  36  70 N10       29.98R
LANSING*       CLOUDY    42  37  80 N15G23    29.96R
WAUKEGAN       MOSUNNY   44  35  70 N8G17     29.97R
DUPAGE AIRPORT SUNNY     44  34  67 N15       29.97R
WHEELING       SUNNY     45  35  68 N10       29.99R
NORTHERLY ISL    N/A     43  37  79 MISG        N/A
NORTHERLY ISL    N/A     43  37  79 MISG        N/A
$$

LMZ740>746-051400-
SOUTHERN LAKE MICHIGAN

STATION/POSITION SKY/WX   TEMP    WIND        PRES    VSBY  WAVE
                          AIR SEA DIR/SP/G                  HT/PER
                          (F)     (DEG/KT/KT) (MB)    (MI)  (FT/S)
SOUTHERN BUOY              40 40   10/ 17/ 21 1013.5          6/ 7
WILMETTE HARBOR            41 43   20/ 19/ 25   N/A           9/ 7
HARRISON CRIB              42     350/ 25/ 27   N/A
BURNHAM HARBOR             43     350/ 12/ 22   N/A
CALUMET HARBOR             42     330/ 18/ 24 1013.8R
BURNS HARBOR               42     350/ 17/ 23 1014.2R
MICHIGAN CITY              42     340/ 20/ 21   N/A
ST. JOSEPH                 44 46                N/A           5/ 8
$$

ILZ025>027-034>036-040-047-049-050-058-095>099-051400-
WEST-CENTRAL ILLINOIS

CITY           SKY/WX    TMP DP  RH WIND       PRES   REMARKS
QUINCY         SUNNY     48  39  71 N8        30.03R
MACOMB*        SUNNY     46  39  75 N13       30.04R
PITTSFIELD*    SUNNY     48  39  72 N9        30.03R
$$

ILZ028>032-037-038-041>044-048-051>054-059>061-051400-
CENTRAL ILLINOIS

CITY           SKY/WX    TMP DP  RH WIND       PRES   REMARKS
BLOOMINGTON    MOSUNNY   43  38  82 N14       29.98R
DECATUR        CLOUDY    44  37  76 N10G20    29.95R
PEORIA         SUNNY     45  35  68 N10G21    30.00R
SPRINGFIELD    SUNNY     47  38  71 N13       29.99R
TAYLORVILLE    NOT AVBL
$$

ILZ033-039-045-046-055>057-062-063-051400-
EAST-CENTRAL ILLINOIS

CITY           SKY/WX    TMP DP  RH WIND       PRES   REMARKS
CHAMPAIGN      CLOUDY    44  38  79 N16       29.93R
MATTOON        PTSUNNY   45  38  76 N16       29.92R
$$

ILZ079-100>102-051400-
SOUTHWEST ILLINOIS

CITY           SKY/WX    TMP DP  RH WIND       PRES   REMARKS
ALTON          SUNNY     46  36  66 N14       29.98R
CAHOKIA*       SUNNY     51  37  58 N10G21    29.98R
SPARTA*        SUNNY     49  39  69 N9G17     29.96R
$$

ILZ064>066-069>071-074>076-080>082-084>086-088>090-092>094-051400-
SOUTH-CENTRAL ILLINOIS

CITY           SKY/WX    TMP DP  RH WIND       PRES   REMARKS
CARBONDALE     SUNNY     51  41  68 NW9       29.93R
MARION         SUNNY     52  41  66 NW12      29.92R
MT. VERNON     MOSUNNY   48  36  61 N7G17     29.93R
SALEM*         MOSUNNY   47  38  73 N12       29.94R
$$

ILZ067-068-072-073-078-083-087-091-051400-
SOUTHEAST ILLINOIS

CITY           SKY/WX    TMP DP  RH WIND       PRES   REMARKS
LAWRENCEVILLE  CLOUDY    46  39  76 N14       29.89R
FLORA*         CLOUDY    47  40  76 N13G18    29.92R
HARRISBURG*    MOSUNNY   49  41  73 N9G18     29.91R
ROBINSON*      CLOUDY    45  40  85 N9G21     29.90R
$$

ABBREVIATIONS USED IN REMARKS
   TC - TEMPERATURE IN CELSIUS
  WCI - WIND CHILL INDEX
   HX - HEAT INDEX
  VSB - VISIBILITY
$$





USA.gov is the U.S. government's official web portal to all federal, state and local government web resources and services.